Вернуться в каталог

STARLINK-34895

АктивенСвязьVLEO
NORAD 65349·PAYLOAD·🇺🇸 United States

Запущен Aug 27, 2025 с Cape Canaveral Space Force Station

Loading…

Ближайшие Пролёты (ближайшие 24 часа)

TLE

СвежийSource: CelesTrak SupGP

Эпоха: Sep 14, 2026, 20:54 UTC

1 65349C 25189AC  26257.87131944  .00039552  00000+0  12724-2 0  2579
2 65349  53.1602  46.4952 0001184  81.2603 246.4115 15.31670053    15

Отслеживайте STARLINK-34895 в реальном времени с AllMySat

Download on the App Store